Location: Luxembourg
(49.6117°N, 6.1300°E)
Time: 07:05:49
(UTC+02:00)

Envisat - Pass Details

Date: 29 January 2019
Orbit: 764 x 766 km, 98.1° (Epoch: 18 October)

Event Time Altitude Azimuth Distance (km) Brightness Sun altitude
Rises 07:09:37 0° 25° (NNE) 3,244 6.4 -10.3°
Reaches altitude 10° 07:12:27 10° 40° (NE) 2,312 5.8 -9.9°
Maximum altitude 07:16:23 22° 91° (E) 1,625 5.8 -9.2°
Drops below altitude 10° 07:20:16 10° 141° (SE) 2,298 6.4 -8.6°
Sets 07:23:04 0° 157° (SSE) 3,218 6.9 -8.2°
